Time,TemperatureF,DewpointF,PressureIn,WindDirection,WindDirectionDegrees,WindSpeedMPH,WindSpeedGustMPH,Humidity,HourlyPrecipIn,Conditions,Clouds,dailyrainin,SoftwareType,DateUTC
2013-07-21 08:16:00,69.7,66.0,29.93,SE,126,0.0,-999.0,89,-99.99,,,0.00,weatherlink.com 1.10,2013-07-21 12:16:00,
2013-07-21 08:18:00,69.8,66.0,29.93,SE,126,0.0,-999.0,88,-99.99,,,0.00,weatherlink.com 1.10,2013-07-21 12:18:00,
2013-07-21 08:33:00,70.7,67.0,29.93,SE,126,0.0,-999.0,88,-99.99,,,0.00,weatherlink.com 1.10,2013-07-21 12:33:00,
2013-07-21 08:48:00,71.7,68.0,29.93,SE,126,0.0,-999.0,87,-99.99,,,0.00,weatherlink.com 1.10,2013-07-21 12:48:00,
2013-07-21 09:03:00,72.7,69.0,29.93,SE,126,0.0,-999.0,87,-99.99,,,0.00,weatherlink.com 1.10,2013-07-21 13:03:00,
2013-07-21 09:18:00,73.4,69.0,29.93,SE,126,0.0,-999.0,85,-99.99,,,0.00,weatherlink.com 1.10,2013-07-21 13:18:00,
2013-07-21 09:33:00,74.5,69.0,29.93,SE,126,0.0,-999.0,83,-99.99,,,0.00,weatherlink.com 1.10,2013-07-21 13:33:00,
2013-07-21 09:48:00,75.4,70.0,29.93,SE,126,0.0,-999.0,82,-99.99,,,0.00,weatherlink.com 1.10,2013-07-21 13:48:00,
2013-07-21 10:03:00,76.2,69.0,29.93,ESE,117,0.0,-999.0,78,-99.99,,,0.00,weatherlink.com 1.10,2013-07-21 14:03:00,
2013-07-21 10:18:00,77.3,70.0,29.93,ESE,113,0.0,-999.0,77,-99.99,,,0.00,weatherlink.com 1.10,2013-07-21 14:18:00,
2013-07-21 10:34:00,79.2,69.0,29.93,ENE,61,0.0,-999.0,72,-99.99,,,0.00,weatherlink.com 1.10,2013-07-21 14:34:00,
2013-07-21 10:49:00,79.8,68.0,29.94,East,96,0.0,-999.0,68,-99.99,,,0.00,weatherlink.com 1.10,2013-07-21 14:49:00,
2013-07-21 11:04:00,79.9,70.0,29.95,NE,38,0.0,-999.0,71,-99.99,,,0.00,weatherlink.com 1.10,2013-07-21 15:04:00,
2013-07-21 11:19:00,80.9,69.0,29.94,SSE,154,0.0,-999.0,68,-99.99,,,0.00,weatherlink.com 1.10,2013-07-21 15:19:00,
2013-07-21 11:34:00,83.1,69.0,29.94,ESE,103,0.0,-999.0,62,-99.99,,,0.00,weatherlink.com 1.10,2013-07-21 15:34:00,
2013-07-21 11:49:00,83.4,67.0,29.95,North,350,1.0,-999.0,59,-99.99,,,0.00,weatherlink.com 1.10,2013-07-21 15:49:00,
2013-07-21 12:04:00,83.3,67.0,29.95,NE,44,0.0,-999.0,59,-99.99,,,0.00,weatherlink.com 1.10,2013-07-21 16:04:00,
2013-07-21 12:19:00,83.8,66.0,29.94,NE,53,0.0,-999.0,56,-99.99,,,0.00,weatherlink.com 1.10,2013-07-21 16:19:00,
2013-07-21 12:34:00,83.9,67.0,29.94,NE,34,0.0,-999.0,58,-99.99,,,0.00,weatherlink.com 1.10,2013-07-21 16:34:00,
2013-07-21 12:50:00,85.0,69.0,29.94,East,83,0.0,-999.0,58,-99.99,,,0.00,weatherlink.com 1.10,2013-07-21 16:50:00,
2013-07-21 13:05:00,85.7,69.0,29.94,ESE,109,0.0,-999.0,57,-99.99,,,0.00,weatherlink.com 1.10,2013-07-21 17:05:00,
2013-07-21 13:20:00,87.0,68.0,29.94,SE,124,0.0,-999.0,53,-99.99,,,0.00,weatherlink.com 1.10,2013-07-21 17:20:00,
2013-07-21 13:35:00,85.9,68.0,29.94,SE,132,0.0,-999.0,55,-99.99,,,0.00,weatherlink.com 1.10,2013-07-21 17:35:00,
2013-07-21 13:50:00,85.2,66.0,29.94,SE,132,0.0,-999.0,53,-99.99,,,0.00,weatherlink.com 1.10,2013-07-21 17:50:00,
2013-07-21 14:05:00,86.0,67.0,29.94,East,89,0.0,-999.0,54,-99.99,,,0.00,weatherlink.com 1.10,2013-07-21 18:05:00,
2013-07-21 14:20:00,86.6,66.0,29.94,ENE,65,0.0,-999.0,50,-99.99,,,0.00,weatherlink.com 1.10,2013-07-21 18:20:00,
2013-07-21 14:35:00,86.4,64.0,29.93,East,90,0.0,-999.0,48,-99.99,,,0.00,weatherlink.com 1.10,2013-07-21 18:35:00,
2013-07-21 14:50:00,86.7,65.0,29.94,NE,44,0.0,-999.0,49,-99.99,,,0.00,weatherlink.com 1.10,2013-07-21 18:50:00,
2013-07-21 15:05:00,86.3,63.0,29.93,NE,44,0.0,-999.0,45,-99.99,,,0.00,weatherlink.com 1.10,2013-07-21 19:05:00,
2013-07-21 15:20:00,86.7,65.0,29.93,NE,44,0.0,-999.0,49,-99.99,,,0.00,weatherlink.com 1.10,2013-07-21 19:20:00,
2013-07-21 15:35:00,87.3,65.0,29.93,NE,44,0.0,-999.0,47,-99.99,,,0.00,weatherlink.com 1.10,2013-07-21 19:35:00,
2013-07-21 15:51:00,87.0,69.0,29.93,NE,47,0.0,-999.0,55,-99.99,,,0.00,weatherlink.com 1.10,2013-07-21 19:51:00,
2013-07-21 16:06:00,86.0,69.0,29.93,NE,48,0.0,-999.0,58,-99.99,,,0.00,weatherlink.com 1.10,2013-07-21 20:06:00,
2013-07-21 16:21:00,84.8,69.0,29.93,NE,48,0.0,-999.0,59,-99.99,,,0.00,weatherlink.com 1.10,2013-07-21 20:21:00,
2013-07-21 16:36:00,84.0,69.0,29.93,SSW,213,0.0,-999.0,61,-99.99,,,0.00,weatherlink.com 1.10,2013-07-21 20:36:00,
2013-07-21 16:51:00,83.6,68.0,29.93,ENE,65,0.0,-999.0,59,-99.99,,,0.00,weatherlink.com 1.10,2013-07-21 20:51:00,
2013-07-21 17:06:00,83.3,68.0,29.92,NE,47,0.0,-999.0,60,-99.99,,,0.00,weatherlink.com 1.10,2013-07-21 21:06:00,
2013-07-21 17:21:00,83.6,68.0,29.92,NE,47,0.0,-999.0,60,-99.99,,,0.00,weatherlink.com 1.10,2013-07-21 21:21:00,
2013-07-21 17:36:00,83.4,67.0,29.92,NE,47,0.0,-999.0,59,-99.99,,,0.00,weatherlink.com 1.10,2013-07-21 21:36:00,
2013-07-21 17:51:00,83.1,68.0,29.92,NE,47,0.0,-999.0,60,-99.99,,,0.00,weatherlink.com 1.10,2013-07-21 21:51:00,
2013-07-21 18:06:00,82.8,67.0,29.92,NE,47,0.0,-999.0,59,-99.99,,,0.00,weatherlink.com 1.10,2013-07-21 22:06:00,
2013-07-21 18:21:00,82.1,68.0,29.92,NE,47,0.0,-999.0,63,-99.99,,,0.00,weatherlink.com 1.10,2013-07-21 22:21:00,
2013-07-21 18:36:00,81.6,68.0,29.92,NE,47,0.0,-999.0,64,-99.99,,,0.00,weatherlink.com 1.10,2013-07-21 22:36:00,
2013-07-21 18:51:00,81.3,68.0,29.92,NE,47,0.0,-999.0,65,-99.99,,,0.00,weatherlink.com 1.10,2013-07-21 22:51:00,
2013-07-21 19:06:00,81.0,69.0,29.92,NE,47,0.0,-999.0,67,-99.99,,,0.00,weatherlink.com 1.10,2013-07-21 23:06:00,
2013-07-21 19:22:00,80.5,68.0,29.92,NE,47,0.0,-999.0,65,-99.99,,,0.00,weatherlink.com 1.10,2013-07-21 23:22:00,
2013-07-21 19:37:00,80.3,68.0,29.92,NE,47,0.0,-999.0,67,-99.99,,,0.00,weatherlink.com 1.10,2013-07-21 23:37:00,
2013-07-21 19:52:00,79.8,68.0,29.92,NE,47,0.0,-999.0,68,-99.99,,,0.00,weatherlink.com 1.10,2013-07-21 23:52:00,
2013-07-21 20:07:00,79.0,68.0,29.92,NE,47,0.0,-999.0,68,-99.99,,,0.00,weatherlink.com 1.10,2013-07-22 00:07:00,
2013-07-21 20:22:00,78.1,68.0,29.93,NE,47,0.0,-999.0,71,-99.99,,,0.00,weatherlink.com 1.10,2013-07-22 00:22:00,
2013-07-21 20:37:00,77.1,67.0,29.94,NE,47,0.0,-999.0,72,-99.99,,,0.00,weatherlink.com 1.10,2013-07-22 00:37:00,
2013-07-21 20:52:00,76.1,66.0,29.94,NE,47,0.0,-999.0,71,-99.99,,,0.00,weatherlink.com 1.10,2013-07-22 00:52:00,
2013-07-21 21:07:00,75.5,68.0,29.95,NE,47,0.0,-999.0,77,-99.99,,,0.00,weatherlink.com 1.10,2013-07-22 01:07:00,
2013-07-21 21:22:00,74.6,67.0,29.96,NE,47,0.0,-999.0,78,-99.99,,,0.00,weatherlink.com 1.10,2013-07-22 01:22:00,
2013-07-21 21:37:00,74.1,66.0,29.97,NE,47,0.0,-999.0,75,-99.99,,,0.00,weatherlink.com 1.10,2013-07-22 01:37:00,
2013-07-21 21:52:00,73.7,66.0,29.96,NE,47,0.0,-999.0,76,-99.99,,,0.00,weatherlink.com 1.10,2013-07-22 01:52:00,